This is the latest recevied weather packets stored in our database for station/object KD5HIA. If no packets are shown the sender has not sent any weather packets the latest 10 day(s).
| Time | Temp. | Humidity | Pressure | Rain* | Wind** | Luminosity | Snow |
|---|---|---|---|---|---|---|---|
| 1777701618 | 9.44° C | 89% | 1020.4 hPa | 0 mm | - | 0 W/m² | - |
| 1777701017 | 9.44° C | 89% | 1020.4 hPa | 0 mm | - | 0 W/m² | - |
| 1777700417 | 9.44° C | 89% | 1020.4 hPa | 0 mm | - | 0 W/m² | - |
| 1777699818 | 9.44° C | 89% | 1020.4 hPa | 0 mm | - | 0 W/m² | - |
| 1777699218 | 10° C | 88% | 1020.4 hPa | 0 mm | - | 0 W/m² | - |
| 1777698617 | 9.44° C | 88% | 1020.4 hPa | 0 mm | - | 0 W/m² | - |
| 1777698018 | 9.44° C | 88% | 1020.3 hPa | 0 mm | - | 0 W/m² | - |
| 1777697417 | 10° C | 86% | 1020.3 hPa | 0 mm | - | 0 W/m² | - |
| 1777696817 | 10° C | 85% | 1020.4 hPa | 0 mm | - | 0 W/m² | - |
| 1777696217 | 10° C | 84% | 1020.3 hPa | 0 mm | - | 0 W/m² | - |
| 1777695617 | 10.56° C | 83% | 1020.1 hPa | 0 mm | - | 0 W/m² | - |
| 1777695017 | 10° C | 84% | 1019.9 hPa | 0 mm | - | 0 W/m² | - |
| 1777694418 | 10.56° C | 82% | 1020 hPa | 0 mm | - | 0 W/m² | - |
| 1777693818 | 11.11° C | 81% | 1019.9 hPa | 0 mm | - | 0 W/m² | - |
| 1777693218 | 11.11° C | 81% | 1019.7 hPa | 0 mm | - | 0 W/m² | - |
| 1777692618 | 11.11° C | 80% | 1019.5 hPa | 0 mm | - | 0 W/m² | - |
| 1777692017 | 11.67° C | 80% | 1019.6 hPa | 0 mm | - | 0 W/m² | - |
| 1777691418 | 11.67° C | 78% | 1019.5 hPa | 0 mm | - | 0 W/m² | - |
| 1777690817 | 12.22° C | 77% | 1019.5 hPa | 0 mm | - | 0 W/m² | - |
| 1777690218 | 12.22° C | 77% | 1019.4 hPa | 0 mm | - | 0 W/m² | - |
| 1777689617 | 12.22° C | 76% | 1019.2 hPa | 0 mm | - | 0 W/m² | - |
| 1777689018 | 12.22° C | 75% | 1019.2 hPa | 0 mm | - | 0 W/m² | - |
| 1777688417 | 12.78° C | 74% | 1019.1 hPa | 0 mm | - | 0 W/m² | - |
| 1777687818 | 12.78° C | 73% | 1019.2 hPa | 0 mm | - | 0 W/m² | - |
| 1777687222 | 12.78° C | 74% | 1018.9 hPa | 0 mm | - | 0 W/m² | - |
* Rain latest hour (hover to see other rain measurements)
** Current wind speed in m/s (hover to see current wind gust speed)